Погода в Млинове

Украина / Ровненская область     50°30′41″N   25°37′23″E
темп.,
°C
ветер,
м/с
пор.,
м/с
влажн.,
%
обл.,
%
осадки,
мм/ч
давл.,
гПа
погр.,
м
15 мая, сб
сб1500:00+9юз3894100 0.0 1006171
03:00+8юз3697100 0.0 1007155
06:00+10ююз2597100 0.0 1007234
09:00+11зсз4796100 0.1 1009471
12:00+13зсз578698 0.1 1010729
15:00+17зсз4662100 0.2 10091512
18:00+16з467327 0.1 1010616
21:00+12зюз22841 0.1 101011
16 мая, вс
вс1600:00+10ю11855 0.0 101110
03:00+9ююв228953 0.0 101122
06:00+9юв339188 0.0 101043
09:00+14юв4778100 0.0 1010339
12:00+18ююв5666100 0.0 10091105
15:00+20ююв6864100 0.6 10071374
18:00+17ю61177100 2.4 1006547
21:00+14юв388697 3.8 1006198
17 мая, пн
пн1700:00+12зюз3895100 0.1 1007219
03:00+11ююз2598100 1.2 1007157
06:00+11зюз3797100 0.7 1007154
09:00+13з238291 0.7 1008371
12:00+17з3367100 0.1 10071188
15:00+19сз3360100 0.4 10051360
18:00+19ссз336231 0.1 10041224
21:00+14сз22790 0.3 100412
18 мая, вт
вт1800:00+12з4789100 0.0 1005156
03:00+11з51092100 0.6 1005500
06:00+11з4997100 3.3 1005500
09:00+11з5893100 3.7 1006560
12:00+13з798198 0.7 1008985
15:00+16зсз785922 0.8 10081708
18:00+15зсз686896 0.2 10081318
21:00+11з3886100 0.2 1010178
19 мая, ср
ср1900:00+9з349364 0.0 101169
03:00+8з379566 0.0 1012128
06:00+7з24956 0.0 101283
09:00+12зсз35784 0.0 1012535
12:00+15зсз446469 0.5 10131458
15:00+15сз4463100 1.0 10121205
18:00+15ссз3463100 0.1 1012350
21:00+12зсз3374100 0.2 101340